| time (UTC) | temp F | wind direction | speed knots | gust knots | rain 1hr in | rain 24hr in | rain mn in | humidity % | barometer mb |
| 20260906164533 | 88 | 9 | 4.3 | 7.0 | 0.00 | 0.00 | 0.00 | 74 | 1014.6 |
| 20260906163024 | 87 | 58 | 3.5 | 9.6 | 0.00 | 0.00 | 0.00 | 75 | 1014.7 |
| 20260906161517 | 87 | 63 | 3.5 | 9.6 | 0.00 | 0.00 | 0.00 | 73 | 1014.7 |
| 20260906160013 | 86 | 11 | 4.3 | 8.7 | 0.00 | 0.00 | 0.00 | 76 | 1014.6 |
| 20260906154509 | 86 | 44 | 5.2 | 7.0 | 0.00 | 0.00 | 0.00 | 75 | 1014.4 |
| 20260906153008 | 84 | 28 | 3.5 | 7.0 | 0.00 | 0.00 | 0.00 | 78 | 1014.5 |
| 20260906151501 | 84 | 31 | 3.5 | 7.8 | 0.00 | 0.00 | 0.00 | 78 | 1014.4 |
| 20260906150057 | 83 | 84 | 4.3 | 8.7 | 0.00 | 0.00 | 0.00 | 78 | 1014.3 |
| 20260906144553 | 82 | 61 | 3.5 | 7.0 | 0.00 | 0.00 | 0.00 | 80 | 1014.5 |
| 20260906143049 | 82 | 43 | 2.6 | 5.2 | 0.00 | 0.00 | 0.00 | 80 | 1014.5 |
| 20260906141545 | 80 | 33 | 1.7 | 6.1 | 0.00 | 0.00 | 0.00 | 81 | 1014.4 |
| 20260906140046 | 79 | 37 | 3.5 | 6.1 | 0.00 | 0.00 | 0.00 | 82 | 1014.2 |
| 20260906134537 | 78 | 43 | 3.5 | 7.8 | 0.00 | 0.00 | 0.00 | 83 | 1014.2 |
| 20260906133038 | 78 | 72 | 2.6 | 7.8 | 0.00 | 0.00 | 0.00 | 84 | 1014.1 |
| 20260906131530 | 77 | 94 | 3.5 | 7.0 | 0.00 | 0.00 | 0.00 | 85 | 1014.0 |
| 20260906130025 | 76 | 51 | 1.7 | 7.0 | 0.00 | 0.00 | 0.00 | 87 | 1014.0 |
| 20260906124519 | 75 | 17 | 2.6 | 7.8 | 0.00 | 0.00 | 0.00 | 90 | 1014.0 |
| 20260906123021 | 75 | 70 | 2.6 | 5.2 | 0.00 | 0.00 | 0.00 | 92 | 1013.7 |
| 20260906121512 | 74 | 64 | 2.6 | 4.3 | 0.00 | 0.00 | 0.00 | 93 | 1013.6 |
| 20260906120010 | 74 | 55 | 1.7 | 4.3 | 0.00 | 0.00 | 0.00 | 93 | 1013.7 |
| 20260906114506 | 75 | 69 | 1.7 | 5.2 | 0.00 | 0.00 | 0.00 | 93 | 1013.3 |
| 20260906113005 | 75 | 53 | 2.6 | 4.3 | 0.00 | 0.00 | 0.00 | 93 | 1013.2 |
| 20260906111506 | 75 | 68 | 0.9 | 5.2 | 0.00 | 0.00 | 0.00 | 93 | 1013.2 |
| 20260906110004 | 75 | 53 | 1.7 | 7.0 | 0.00 | 0.00 | 0.00 | 93 | 1013.1 |
| 20260906104501 | 75 | 46 | 4.3 | 7.0 | 0.00 | 0.00 | 0.00 | 93 | 1013.1 |
| 20260906103101 | 76 | 30 | 2.6 | 7.0 | 0.00 | 0.00 | 0.00 | 92 | 1013.1 |
| 20260906101558 | 76 | 51 | 3.5 | 6.1 | 0.00 | 0.00 | 0.00 | 92 | 1013.0 |
| 20260906100056 | 76 | 23 | 3.5 | 6.1 | 0.00 | 0.00 | 0.00 | 92 | 1012.8 |
| 20260906094557 | 76 | 63 | 2.6 | 7.0 | 0.00 | 0.00 | 0.00 | 91 | 1012.7 |
| 20260906093056 | 76 | 34 | 2.6 | 6.1 | 0.00 | 0.00 | 0.00 | 90 | 1012.6 |
| 20260906091550 | 76 | 54 | 3.5 | 6.1 | 0.00 | 0.00 | 0.00 | 90 | 1012.4 |
| 20260906090049 | 77 | 51 | 3.5 | 6.1 | 0.00 | 0.00 | 0.00 | 89 | 1012.2 |
| 20260906084549 | 77 | 30 | 2.6 | 5.2 | 0.00 | 0.00 | 0.00 | 88 | 1012.0 |
| 20260906083049 | 77 | 28 | 1.7 | 3.5 | 0.00 | 0.00 | 0.00 | 88 | 1012.0 |
| 20260906081548 | 77 | 20 | 1.7 | 4.3 | 0.00 | 0.00 | 0.00 | 87 | 1012.0 |
| 20260906080046 | 77 | 13 | 1.7 | 3.5 | 0.00 | 0.00 | 0.00 | 86 | 1011.9 |
| 20260906074546 | 77 | 30 | 0.9 | 2.6 | 0.00 | 0.00 | 0.00 | 86 | 1011.8 |
| 20260906073043 | 77 | 25 | 0.9 | 2.6 | 0.00 | 0.00 | 0.00 | 85 | 1012.0 |
| 20260906071542 | 77 | 29 | 0.9 | 1.7 | 0.00 | 0.00 | 0.00 | 84 | 1012.0 |
| 20260906070041 | 78 | 30 | 0.9 | 2.6 | 0.00 | 0.00 | 0.00 | 84 | 1012.1 |
| 20260906064542 | 78 | 28 | 0.9 | 3.5 | 0.00 | 0.00 | 0.00 | 84 | 1012.2 |
| 20260906063038 | 78 | 22 | 0.9 | 2.6 | 0.00 | 0.00 | 0.00 | 83 | 1012.2 |
| 20260906061538 | 78 | 20 | 0.9 | 2.6 | 0.00 | 0.00 | 0.00 | 82 | 1012.2 |
| 20260906060035 | 78 | 33 | 0.9 | 1.7 | 0.00 | 0.00 | 0.00 | 82 | 1012.2 |
| 20260906054539 | 78 | 33 | 0.9 | 1.7 | 0.00 | 0.00 | 0.00 | 82 | 1012.4 |
| 20260906053033 | 78 | 20 | 0.9 | 1.7 | 0.00 | 0.00 | 0.00 | 81 | 1012.3 |
| 20260906051532 | 79 | 20 | 0.9 | 2.6 | 0.00 | 0.00 | 0.00 | 81 | 1012.3 |
| 20260906050030 | 79 | 20 | 0.0 | 1.7 | 0.00 | 0.00 | 0.00 | 81 | 1012.3 |
| 20260906044530 | 79 | 20 | 0.9 | 1.7 | 0.00 | 0.00 | 0.00 | 80 | 1012.1 |
| 20260906043030 | 79 | 20 | 0.0 | 1.7 | 0.00 | 0.00 | 0.00 | 80 | 1012.2 |
| 20260906041530 | 79 | 20 | 0.0 | 1.7 | 0.00 | 0.00 | 0.00 | 80 | 1012.0 |
| 20260906040029 | 80 | 20 | 0.0 | 2.6 | 0.00 | 0.00 | 0.00 | 80 | 1011.9 |
| 20260906034529 | 80 | 58 | 0.9 | 1.7 | 0.00 | 0.00 | 0.00 | 79 | 1011.7 |
| 20260906033028 | 80 | 58 | 0.9 | 1.7 | 0.00 | 0.00 | 0.00 | 79 | 1011.7 |
| 20260906031528 | 80 | 58 | 0.0 | 1.7 | 0.00 | 0.00 | 0.00 | 79 | 1011.6 |
| 20260906030027 | 80 | 58 | 0.0 | 0.9 | 0.00 | 0.00 | 0.00 | 78 | 1011.5 |
| 20260906024526 | 81 | 58 | 0.0 | 0.9 | 0.00 | 0.00 | 0.00 | 77 | 1011.4 |
| 20260906023028 | 81 | 58 | 0.0 | 0.0 | 0.00 | 0.00 | 0.00 | 75 | 1011.1 |
| 20260906021537 | 82 | 58 | 0.0 | 0.0 | 0.00 | 0.00 | 0.00 | 75 | 1011.0 |
| 20260906020026 | 82 | 58 | 0.0 | 1.7 | 0.00 | 0.00 | 0.00 | 75 | 1010.8 |
| 20260906014527 | 83 | 58 | 0.9 | 1.7 | 0.00 | 0.00 | 0.00 | 73 | 1010.5 |
| 20260906013035 | 83 | 58 | 0.9 | 1.7 | 0.00 | 0.00 | 0.00 | 74 | 1010.5 |
| 20260906011526 | 84 | 58 | 0.0 | 0.9 | 0.00 | 0.00 | 0.00 | 73 | 1010.3 |
| 20260906010023 | 85 | 58 | 0.0 | 0.9 | 0.00 | 0.00 | 0.00 | 70 | 1010.1 |
| 20260906004522 | 86 | 58 | 0.0 | 1.7 | 0.00 | 0.00 | 0.00 | 69 | 1010.0 |
| 20260906003023 | 86 | 58 | 0.0 | 1.7 | 0.00 | 0.00 | 0.00 | 67 | 1010.0 |
| 20260906001522 | 87 | 58 | 0.9 | 2.6 | 0.00 | 0.00 | 0.00 | 66 | 1010.1 |
| 20260906000023 | 88 | 99 | 1.7 | 5.2 | 0.00 | 0.00 | 0.00 | 64 | 1010.1 |
| 20260905234520 | 89 | 60 | 1.7 | 5.2 | 0.00 | 0.00 | 0.00 | 60 | 1010.1 |
| 20260905233021 | 90 | 5 | 2.6 | 6.1 | 0.00 | 0.00 | 0.00 | 58 | 1010.2 |
| 20260905231520 | 91 | 44 | 3.5 | 7.8 | 0.00 | 0.00 | 0.00 | 55 | 1010.1 |
| 20260905230119 | 94 | 342 | 5.2 | 13.9 | 0.00 | 0.00 | 0.00 | 52 | 1010.3 |
| 20260905224522 | 97 | 34 | 3.5 | 6.1 | 0.00 | 0.00 | 0.00 | 51 | 1010.2 |
| 20260905223018 | 98 | 253 | 0.9 | 3.5 | 0.00 | 0.00 | 0.00 | 49 | 1010.1 |
| 20260905221517 | 98 | 315 | 1.7 | 4.3 | 0.00 | 0.00 | 0.00 | 46 | 1010.0 |
| 20260905220016 | 99 | 342 | 1.7 | 5.2 | 0.00 | 0.00 | 0.00 | 45 | 1010.1 |
| 20260905214516 | 101 | 344 | 1.7 | 3.5 | 0.00 | 0.00 | 0.00 | 44 | 1010.0 |
| 20260905213015 | 102 | 304 | 0.9 | 2.6 | 0.00 | 0.00 | 0.00 | 43 | 1010.0 |
| 20260905211514 | 104 | 325 | 1.7 | 4.3 | 0.00 | 0.00 | 0.00 | 40 | 1010.2 |
| 20260905210011 | 105 | 273 | 1.7 | 5.2 | 0.00 | 0.00 | 0.00 | 40 | 1010.3 |
| 20260905204511 | 103 | 318 | 1.7 | 5.2 | 0.00 | 0.00 | 0.00 | 43 | 1010.5 |
| 20260905203006 | 102 | 278 | 1.7 | 8.7 | 0.00 | 0.00 | 0.00 | 44 | 1010.7 |
| 20260905201508 | 103 | 300 | 0.9 | 6.1 | 0.00 | 0.00 | 0.00 | 43 | 1010.9 |
| 20260905200003 | 103 | 236 | 0.9 | 8.7 | 0.00 | 0.00 | 0.00 | 44 | 1011.0 |
| 20260905194502 | 103 | 360 | 3.5 | 7.8 | 0.00 | 0.00 | 0.00 | 48 | 1011.2 |
| 20260905193059 | 102 | 302 | 0.9 | 5.2 | 0.00 | 0.00 | 0.00 | 44 | 1011.2 |
| 20260905191557 | 102 | 21 | 0.9 | 5.2 | 0.00 | 0.00 | 0.00 | 45 | 1011.3 |
| 20260905190101 | 102 | 322 | 4.3 | 7.8 | 0.00 | 0.00 | 0.00 | 47 | 1011.5 |
| 20260905184554 | 102 | 246 | 2.6 | 6.1 | 0.00 | 0.00 | 0.00 | 45 | 1011.6 |
| 20260905183106 | 100 | 355 | 0.0 | 5.2 | 0.00 | 0.00 | 0.00 | 49 | 1011.8 |
| 20260905181547 | 99 | 309 | 2.6 | 7.8 | 0.00 | 0.00 | 0.00 | 54 | 1012.1 |
| 20260905180045 | 99 | 338 | 3.5 | 6.1 | 0.00 | 0.00 | 0.00 | 53 | 1012.2 |
| 20260905174542 | 98 | 49 | 1.7 | 6.1 | 0.00 | 0.00 | 0.00 | 51 | 1012.3 |
| 20260905173039 | 97 | 329 | 1.7 | 4.3 | 0.00 | 0.00 | 0.00 | 56 | 1012.5 |
| 20260905171546 | 96 | 123 | 0.0 | 5.2 | 0.00 | 0.00 | 0.00 | 54 | 1012.6 |
| 20260905170035 | 98 | 32 | 2.6 | 4.3 | 0.00 | 0.00 | 0.00 | 55 | 1012.6 |